Notices

What's New in latest Release from April 7th, 2021:

- Updated Glossary, including Speed of Maximum Gust, and Total Hourly Precipitation

- Updated national and regional climate services offices contacts and prices information

- Addition of station inventory lists for 1981-2010, 1971-2000, and 1961-1990 Normals.

If you haven't already, please take our survey and provide feedback about our website: https://eccc.sondage-survey.ca/f/LanguageSelection.aspx?s=442ca660-fcf1-47c0-95a9-59707d6fd709

Hourly Data Report for September 07, 2018

SHEARWATER RCS
NOVA SCOTIA
Current Station Operator: ECCC - MSC

44°37'47.000" N
63°30'48.000" W
24.00 m
8205092
71264
AAW

Download Data

Hourly Data (September 2018)
Hourly Data Report for September 7, 2018
TIME
LST
Temp Definition
°C
Dew Point Definition
°C
Rel Hum Definition
%
Precip. Amount Definition
mm

Wind Dir Definition
10's deg

Wind Spd Definition
km/h
Visibility Definition
km
Stn Press Definition
kPa
Hmdx Definition


Wind Chill Definition


Weather Definition


00:00 19.9 17.7 87 0.0 2 9   101.51     LegendNANA
01:00 19.1 16.1 82 0.0 1 10   101.58     LegendNANA
02:00 16.8 11.3 70 0.0 36 14   101.65     LegendNANA
03:00 16.3 11.1 71 0.0 35 13   101.67     LegendNANA
04:00 15.0 11.4 79 0.0 33 8   101.72     LegendNANA
05:00 14.9 10.3 74 0.0 35 10   101.76     LegendNANA
06:00 14.3 10.1 76 0.0 35 11   101.81     LegendNANA
07:00 15.0 9.8 71 0.0 34 11   101.85     LegendNANA
08:00 17.2 10.8 66 0.0 35 12   101.84     LegendNANA
09:00 18.8 10.7 59 0.0 1 9   101.86     LegendNANA
10:00 19.5 10.9 58 0.0 4 10   101.86     LegendNANA
11:00 20.0 10.5 54 0.0 25 7   101.84     LegendNANA
12:00 21.0 11.8 56 0.0 22 9   101.81     LegendNANA
13:00 21.2 12.6 58 0.0 17 11   101.75     LegendNANA
14:00 20.8 11.3 55 0.0 16 17   101.68     LegendNANA
15:00 21.1 12.1 56 0.0 16 17   101.63     LegendNANA
16:00 20.7 11.6 56 0.0 19 15   101.58     LegendNANA
17:00 19.6 10.2 55 0.0 17 19   101.54     LegendNANA
18:00 18.9 11.6 63 0.0 19 9   101.53     LegendNANA
19:00 16.9 11.7 71 0.0 0 1   101.50     LegendNANA
20:00 17.0 12.8 76 0.0 32 6   101.53     LegendNANA
21:00 16.7 12.7 77 0.0 0 1   101.53     LegendNANA
22:00 17.2 13.3 78 0.0 25 2   101.49     LegendNANA
23:00 15.7 12.7 83 0.0 32 2   101.45     LegendNANA

Notes on Data Quality.

Legend

  • E = Estimated
  • M = Missing
  • NA = Not Available*
  • [empty] = Indicates an unobserved value
Date modified: